Zurück zum Katalog

DELTA 1 DEB

AktivPO
NORAD 42563·DEBRIS·🇺🇸 United States

Gestartet Jul 23, 1972 von Vandenberg Space Force Base

Loading…

Nächste Überflüge (nächste 24 Stunden)

TLE

AktuellSource: Space-Track

Epoche: Sep 13, 2026, 18:28 UTC

1 42563U 72058JW  26256.76978904  .00000335  00000-0  31261-3 0  9990
2 42563  98.8423   9.5887 0248709 182.6483 177.3368 13.75171416635886

Verfolge DELTA 1 DEB in Echtzeit mit AllMySat

Download on the App Store